Location: Lawrenceville
(33.9572°N, 83.9896°W)
Time: 23:24:26
(UTC+00:00)

Hubble Space Telescope - Pass Details

Date: 20 April 2024
Orbit: 512 x 515 km, 28.5° (Epoch: 19 May)

Event Time Altitude Azimuth Distance (km) Brightness Sun altitude
Rises 01:27:34 0° 260° (W) 2,604 5.2 -15.7°
Reaches altitude 10° 01:30:35 10° 236° (SW) 1,716 3.7 -16.3°
Maximum altitude 01:32:51 15° 201° (SSW) 1,441 2.9 -16.7°
Enters shadow 01:34:01 13° 181° (S) 1,519 2.8 -16.9°
